Location: Newark
(47.3150°N, 5.1150°E)
Time: 00:30:50
(UTC+00:00)

Envisat - Pass Details

Date: 31 October 2019
Orbit: 764 x 766 km, 98.1° (Epoch: 17 November)

Event Time Altitude Azimuth Distance (km) Brightness Sun altitude
Rises 19:01:53 0° 212° (SSW) 3,221 6.5 -27.0°
Reaches altitude 10° 19:05:04 10° 233° (SW) 2,301 6.0 -27.6°
Maximum altitude 19:08:11 16° 271° (W) 1,908 5.9 -28.1°
Drops below altitude 10° 19:11:19 10° 310° (NW) 2,311 6.2 -28.6°
Sets 19:14:32 0° 331° (NNW) 3,243 6.8 -29.2°
